GW6916 Weather Reports


time (UTC)temp
C
wind
direction
speed
KPH
gust
KPH
rain 1hr
cm
rain 24hr
cm
rain mn
cm
humidity
%
barometer
mb
20260509032355 15 153 0.0 0.0 0.00 0.00 0.00 86 1014.7
20260509031853 15 153 0.0 0.0 0.00 0.00 0.00 87 1014.7
20260509031350 15 153 0.0 0.0 0.00 0.00 0.00 88 1015.0
20260509030847 15 153 0.0 0.0 0.00 0.00 0.00 88 1015.0
20260509030345 15 153 0.0 0.0 0.00 0.00 0.00 88 1014.6
20260509025842 15 153 0.0 0.0 0.00 0.00 0.00 88 1014.7
20260509025337 15 153 0.0 0.0 0.00 0.00 0.00 87 1015.0
20260509024833 15 153 0.0 0.0 0.00 0.00 0.00 86 1014.9
20260509024329 15 153 0.0 0.0 0.00 0.00 0.00 85 1014.6
20260509023827 15 153 0.0 0.0 0.00 0.00 0.00 85 1014.8
20260509023324 15 153 0.0 0.0 0.00 0.00 0.00 84 1014.6
20260509022820 15 152 0.0 0.0 0.00 0.00 0.00 84 1014.4
20260509022318 15 152 0.0 0.0 0.00 0.00 0.00 84 1014.5
20260509021814 15 152 0.0 0.0 0.00 0.00 0.00 85 1014.4
20260509021312 15 152 0.0 0.0 0.00 0.00 0.00 84 1014.6
20260509020809 15 153 0.0 0.0 0.00 0.00 0.00 84 1014.6
20260509020307 15 127 0.0 1.6 0.00 0.00 0.00 85 1014.8
20260509015804 15 125 0.0 0.0 0.00 0.00 0.00 84 1014.4
20260509015306 15 125 0.0 0.0 0.00 0.00 0.00 84 1014.6
20260509014758 16 125 0.0 0.0 0.00 0.00 0.00 83 1014.2
20260509014256 16 125 0.0 0.0 0.00 0.00 0.00 83 1014.4
20260509013752 16 125 0.0 0.0 0.00 0.00 0.00 83 1014.5
20260509013248 16 124 0.0 0.0 0.00 0.00 0.00 82 1014.3
20260509012745 16 125 0.0 0.0 0.00 0.00 0.00 81 1014.2
20260509012241 16 124 0.0 0.0 0.00 0.00 0.00 81 1014.6
20260509011739 16 129 0.0 0.0 0.00 0.00 0.00 81 1014.0
20260509011237 16 140 0.0 1.6 0.00 0.00 0.00 80 1013.9
20260509010735 16 119 1.6 1.6 0.00 0.00 0.00 80 1014.0
20260509010231 16 77 0.0 0.0 0.00 0.00 0.00 79 1014.1
20260509005729 16 169 0.0 0.0 0.00 0.00 0.00 80 1014.1
20260509005226 16 169 0.0 0.0 0.00 0.00 0.00 79 1014.1
20260509004725 16 169 0.0 0.0 0.00 0.00 0.00 78 1014.0
20260509004223 17 169 0.0 0.0 0.00 0.00 0.00 77 1014.0
20260509003721 17 169 0.0 0.0 0.00 0.00 0.00 76 1013.8
20260509003218 17 184 0.0 0.0 0.00 0.00 0.00 76 1014.0
20260509002715 17 183 0.0 0.0 0.00 0.00 0.00 75 1013.9
20260509002213 17 184 0.0 0.0 0.00 0.00 0.00 75 1014.0
20260509001710 17 184 0.0 0.0 0.00 0.00 0.00 74 1014.0
20260509001206 17 183 1.6 1.6 0.00 0.00 0.00 74 1014.1
20260509000704 17 184 0.0 1.6 0.00 0.00 0.00 74 1014.1
20260509000201 17 184 0.0 1.6 0.00 0.00 0.00 74 1013.9
20260508235658 17 184 1.6 1.6 0.00 0.00 0.00 73 1014.1
20260508235155 17 184 1.6 1.6 0.00 0.00 0.00 73 1014.0
20260508234652 17 184 1.6 1.6 0.00 0.00 0.00 72 1013.8
20260508234148 18 184 0.0 1.6 0.00 0.00 0.00 71 1013.8
20260508233648 18 184 0.0 1.6 0.00 0.00 0.00 70 1013.8
20260508233145 18 184 1.6 3.2 0.00 0.00 0.00 70 1014.0
20260508232642 18 183 0.0 0.0 0.00 0.00 0.00 69 1014.0
20260508232139 18 183 1.6 1.6 0.00 0.00 0.00 68 1014.0
20260508231637 18 176 0.0 1.6 0.00 0.00 0.00 68 1013.9
20260508231133 18 178 1.6 3.2 0.00 0.00 0.00 66 1013.8
20260508230629 18 160 1.6 1.6 0.00 0.00 0.00 66 1013.9
20260508230126 18 153 4.8 4.8 0.00 0.00 0.00 65 1014.0
20260508225625 18 169 0.0 0.0 0.00 0.00 0.00 65 1014.0
20260508225120 18 173 3.2 3.2 0.00 0.00 0.00 65 1014.0
20260508224618 19 187 1.6 1.6 0.00 0.00 0.00 65 1013.9
20260508224115 19 168 3.2 3.2 0.00 0.00 0.00 64 1013.9
20260508223613 19 171 4.8 4.8 0.00 0.00 0.00 62 1013.9
20260508223110 19 181 3.2 3.2 0.00 0.00 0.00 61 1013.8
20260508222607 19 172 4.8 4.8 0.00 0.00 0.00 60 1013.8
20260508222104 20 161 4.8 8.0 0.00 0.00 0.00 59 1013.9
20260508221601 20 184 1.6 3.2 0.00 0.00 0.00 60 1014.2
20260508221057 20 168 3.2 3.2 0.00 0.00 0.00 60 1013.9
20260508220553 20 163 4.8 4.8 0.00 0.00 0.00 59 1014.0
20260508220049 20 168 8.0 9.7 0.00 0.00 0.00 58 1013.8
20260508215547 20 168 8.0 11.3 0.00 0.00 0.00 58 1013.9
20260508215043 20 183 6.4 8.0 0.00 0.00 0.00 57 1013.8
20260508214541 20 180 3.2 3.2 0.00 0.00 0.00 56 1013.7
20260508214037 20 170 4.8 8.0 0.00 0.00 0.00 56 1013.8
20260508213535 20 162 4.8 4.8 0.00 0.00 0.00 56 1013.7
20260508213030 20 179 4.8 4.8 0.00 0.00 0.00 57 1013.7
20260508212527 20 192 4.8 4.8 0.00 0.00 0.00 56 1013.6
20260508212023 20 152 9.7 11.3 0.00 0.00 0.00 54 1013.9
20260508211519 20 188 6.4 8.0 0.00 0.00 0.00 54 1013.8
20260508211015 20 164 6.4 8.0 0.00 0.00 0.00 54 1014.0
20260508210512 20 187 6.4 8.0 0.00 0.00 0.00 54 1014.0
20260508210010 20 180 9.7 11.3 0.00 0.00 0.00 53 1014.1
20260508205506 20 176 6.4 9.7 0.00 0.00 0.00 54 1014.1
20260508205002 20 132 4.8 4.8 0.00 0.00 0.00 54 1014.2
20260508204459 20 146 8.0 11.3 0.00 0.00 0.00 52 1014.1
20260508203955 21 180 3.2 3.2 0.00 0.00 0.00 53 1014.1
20260508203451 20 166 3.2 3.2 0.00 0.00 0.00 51 1014.1
20260508202947 20 115 4.8 4.8 0.00 0.00 0.00 51 1014.0
20260508202444 20 171 4.8 8.0 0.00 0.00 0.00 52 1014.0
20260508201941 20 187 4.8 4.8 0.00 0.00 0.00 53 1014.0
20260508201438 21 152 11.3 12.9 0.00 0.00 0.00 52 1014.4
20260508200935 21 143 6.4 8.0 0.00 0.00 0.00 52 1014.3
20260508200432 21 168 4.8 4.8 0.00 0.00 0.00 52 1014.4
20260508195927 21 123 4.8 4.8 0.00 0.00 0.00 52 1014.5
20260508195424 21 150 9.7 11.3 0.00 0.00 0.00 52 1014.6
20260508194920 21 119 6.4 8.0 0.00 0.00 0.00 51 1014.6
20260508194417 21 181 0.0 1.6 0.00 0.00 0.00 51 1014.8
20260508193914 21 140 3.2 4.8 0.00 0.00 0.00 50 1014.6
20260508193411 21 139 4.8 4.8 0.00 0.00 0.00 50 1014.6
20260508192907 22 102 11.3 16.1 0.00 0.00 0.00 48 1014.8
20260508192404 21 175 6.4 8.0 0.00 0.00 0.00 49 1015.0
20260508191901 22 207 3.2 3.2 0.00 0.00 0.00 46 1015.2
20260508191359 21 191 1.6 3.2 0.00 0.00 0.00 50 1015.0
20260508190856 21 170 6.4 9.7 0.00 0.00 0.00 50 1015.2
20260508190352 21 180 4.8 4.8 0.00 0.00 0.00 48 1015.0
20260508185848 21 162 3.2 3.2 0.00 0.00 0.00 50 1015.4
20260508185346 20 121 4.8 8.0 0.00 0.00 0.00 50 1015.2
20260508184844 20 130 0.0 0.0 0.00 0.00 0.00 50 1015.4
20260508184341 20 166 6.4 8.0 0.00 0.00 0.00 50 1015.5
20260508183837 21 151 6.4 9.7 0.00 0.00 0.00 48 1015.6
20260508183334 21 153 3.2 3.2 0.00 0.00 0.00 47 1015.7
20260508182830 21 174 6.4 9.7 0.00 0.00 0.00 48 1015.7
20260508182327 22 173 3.2 4.8 0.00 0.00 0.00 46 1016.0
20260508181822 23 141 1.6 3.2 0.00 0.00 0.00 43 1016.0
20260508181319 21 153 1.6 1.6 0.00 0.00 0.00 47 1016.0
20260508180816 21 225 3.2 3.2 0.00 0.00 0.00 48 1016.0
20260508180313 20 148 6.4 9.7 0.00 0.00 0.00 51 1016.2
20260508175809 20 168 3.2 4.8 0.00 0.00 0.00 53 1016.2
20260508175306 20 185 6.4 11.3 0.00 0.00 0.00 52 1016.3
20260508174804 20 61 4.8 8.0 0.00 0.00 0.00 50 1016.3
20260508174301 20 130 0.0 0.0 0.00 0.00 0.00 52 1016.1
20260508173757 20 120 8.0 11.3 0.00 0.00 0.00 52 1016.6
20260508173254 20 105 4.8 8.0 0.00 0.00 0.00 49 1016.7
20260508172750 21 158 6.4 11.3 0.00 0.00 0.00 49 1016.6
20260508172248 20 209 4.8 9.7 0.00 0.00 0.00 50 1016.3
20260508171744 20 69 6.4 8.0 0.00 0.00 0.00 50 1016.5
20260508171240 19 123 3.2 3.2 0.00 0.00 0.00 52 1016.6
20260508170737 20 115 6.4 8.0 0.00 0.00 0.00 52 1016.8
20260508170235 20 169 11.3 14.5 0.00 0.00 0.00 51 1016.9
20260508165732 20 128 8.0 11.3 0.00 0.00 0.00 50 1017.1
20260508165229 19 171 8.0 9.7 0.00 0.00 0.00 52 1016.9
20260508164725 20 175 6.4 8.0 0.00 0.00 0.00 51 1017.0
20260508164222 19 117 8.0 11.3 0.00 0.00 0.00 54 1017.3
20260508163720 20 141 17.7 20.9 0.00 0.00 0.00 52 1017.3
20260508163217 19 224 4.8 8.0 0.00 0.00 0.00 53 1017.2
20260508162713 18 120 8.0 11.3 0.00 0.00 0.00 53 1017.5
20260508162210 18 135 14.5 16.1 0.00 0.00 0.00 54 1017.3
20260508161707 20 136 9.7 12.9 0.00 0.00 0.00 53 1017.6
20260508161204 19 103 6.4 8.0 0.00 0.00 0.00 53 1017.5
20260508160702 18 120 1.6 3.2 0.00 0.00 0.00 53 1017.7
20260508160200 18 156 3.2 4.8 0.00 0.00 0.00 53 1017.9
20260508155657 18 130 4.8 4.8 0.00 0.00 0.00 54 1018.0
20260508155153 18 157 8.0 9.7 0.00 0.00 0.00 54 1017.7
20260508154651 19 165 6.4 8.0 0.00 0.00 0.00 54 1017.7
20260508154148 19 235 8.0 9.7 0.00 0.00 0.00 53 1017.8
20260508153644 19 226 4.8 4.8 0.00 0.00 0.00 53 1017.8
20260508153141 18 49 4.8 4.8 0.00 0.00 0.00 54 1017.9
20260508152638 18 107 0.0 0.0 0.00 0.00 0.00 55 1018.2
20260508152133 18 83 4.8 8.0 0.00 0.00 0.00 56 1018.3
20260508151630 18 52 1.6 3.2 0.00 0.00 0.00 54 1018.3
20260508151127 18 144 3.2 3.2 0.00 0.00 0.00 56 1018.5
20260508150624 18 323 4.8 4.8 0.00 0.00 0.00 54 1018.2
20260508150120 17 79 6.4 8.0 0.00 0.00 0.00 55 1018.0
20260508145616 17 125 3.2 3.2 0.00 0.00 0.00 57 1018.1
20260508145113 18 68 6.4 9.7 0.00 0.00 0.00 58 1018.2
20260508144611 16 110 4.8 4.8 0.00 0.00 0.00 59 1018.2
20260508144108 16 59 8.0 9.7 0.00 0.00 0.00 60 1018.2
20260508143606 17 104 0.0 1.6 0.00 0.00 0.00 59 1018.2
20260508143102 16 141 0.0 1.6 0.00 0.00 0.00 61 1018.0
20260508142559 17 126 6.4 8.0 0.00 0.00 0.00 61 1018.1
20260508142055 16 60 6.4 8.0 0.00 0.00 0.00 63 1018.0
20260508141552 16 153 8.0 11.3 0.00 0.00 0.00 64 1018.2
20260508141049 15 140 6.4 8.0 0.00 0.00 0.00 65 1018.0
20260508140547 16 140 11.3 11.3 0.00 0.00 0.00 65 1018.2
20260508140043 16 77 1.6 4.8 0.00 0.00 0.00 69 1018.5
20260508135538 15 101 4.8 4.8 0.00 0.00 0.00 71 1018.5
20260508135035 15 122 6.4 8.0 0.00 0.00 0.00 71 1018.3
20260508134532 15 174 4.8 8.0 0.00 0.00 0.00 72 1018.8
20260508134029 15 34 4.8 4.8 0.00 0.00 0.00 73 1018.6
20260508133526 15 60 1.6 3.2 0.00 0.00 0.00 72 1018.8
20260508133023 15 51 1.6 1.6 0.00 0.00 0.00 73 1018.5
20260508132521 14 83 1.6 1.6 0.00 0.00 0.00 74 1018.5
20260508132017 15 350 4.8 8.0 0.00 0.00 0.00 71 1018.3
20260508131512 14 1 3.2 3.2 0.00 0.00 0.00 74 1018.5
20260508131009 13 53 1.6 1.6 0.00 0.00 0.00 75 1018.6
20260508130507 13 61 4.8 8.0 0.00 0.00 0.00 74 1018.6
20260508130002 13 36 1.6 3.2 0.00 0.00 0.00 74 1018.5
20260508125458 13 37 4.8 4.8 0.00 0.00 0.00 76 1018.4
20260508124956 13 85 0.0 1.6 0.00 0.00 0.00 76 1018.3
20260508124454 13 342 4.8 4.8 0.00 0.00 0.00 77 1018.2
20260508123951 13 11 8.0 9.7 0.00 0.00 0.00 77 1017.9
20260508123450 13 326 6.4 8.0 0.00 0.00 0.00 78 1018.0
20260508122946 12 340 1.6 1.6 0.00 0.00 0.00 78 1017.6
20260508122443 12 117 1.6 1.6 0.00 0.00 0.00 80 1017.7
20260508121940 12 335 3.2 3.2 0.00 0.00 0.00 81 1017.7
20260508121438 12 355 3.2 4.8 0.00 0.00 0.00 81 1017.4
20260508120936 12 2 4.8 4.8 0.00 0.00 0.00 81 1017.7
20260508120433 12 344 1.6 1.6 0.00 0.00 0.00 81 1017.6
20260508115931 12 295 3.2 3.2 0.00 0.00 0.00 81 1017.7
20260508115429 12 29 1.6 1.6 0.00 0.00 0.00 82 1017.5
20260508114925 11 39 1.6 3.2 0.00 0.00 0.00 84 1017.3
20260508114422 11 48 1.6 3.2 0.00 0.00 0.00 86 1017.2
20260508113918 11 6 1.6 3.2 0.00 0.00 0.00 88 1017.3
20260508113416 10 50 1.6 1.6 0.00 0.00 0.00 88 1017.2
20260508112913 10 60 1.6 1.6 0.00 0.00 0.00 89 1017.0
20260508112410 10 61 1.6 3.2 0.00 0.00 0.00 89 1017.0
20260508111906 10 116 1.6 1.6 0.00 0.00 0.00 89 1017.1
20260508111404 10 94 0.0 1.6 0.00 0.00 0.00 89 1016.7
20260508110901 10 15 4.8 4.8 0.00 0.00 0.00 89 1016.4
20260508110358 10 21 4.8 4.8 0.00 0.00 0.00 90 1016.5
20260508105858 10 334 1.6 3.2 0.00 0.00 0.00 91 1016.2
20260508105354 10 17 4.8 4.8 0.00 0.00 0.00 91 1016.3
20260508104852 10 353 4.8 4.8 0.00 0.00 0.00 91 1016.2
20260508104348 10 22 4.8 4.8 0.00 0.00 0.00 92 1016.1
20260508103846 10 70 1.6 3.2 0.00 0.00 0.00 92 1016.0
20260508103343 10 39 1.6 3.2 0.00 0.00 0.00 92 1015.8
20260508102840 10 33 3.2 3.2 0.00 0.00 0.00 92 1015.8
20260508102338 10 18 3.2 3.2 0.00 0.00 0.00 92 1015.6
20260508101835 10 66 1.6 1.6 0.00 0.00 0.00 91 1015.6
20260508101333 10 67 1.6 1.6 0.00 0.00 0.00 91 1015.4
20260508100830 10 32 1.6 1.6 0.00 0.00 0.00 90 1015.5
20260508100329 10 11 3.2 3.2 0.00 0.00 0.00 90 1015.3
20260508095824 10 42 1.6 1.6 0.00 0.00 0.00 90 1015.5
20260508095322 10 80 1.6 1.6 0.00 0.00 0.00 89 1015.3
20260508094819 10 79 1.6 1.6 0.00 0.00 0.00 87 1015.3
20260508094315 11 41 3.2 3.2 0.00 0.00 0.00 86 1015.3
20260508093812 11 128 0.0 0.0 0.00 0.00 0.00 83 1015.2
20260508093310 11 316 4.8 4.8 0.00 0.00 0.00 83 1014.9
20260508092807 11 307 6.4 8.0 0.00 0.00 0.00 83 1015.0
20260508092312 11 280 4.8 8.0 0.00 0.00 0.00 83 1014.8
20260508091803 11 310 3.2 3.2 0.00 0.00 0.00 83 1014.7
20260508091259 11 305 4.8 4.8 0.00 0.00 0.00 83 1014.9
20260508090757 11 300 4.8 4.8 0.00 0.00 0.00 85 1014.9
20260508090255 11 289 1.6 3.2 0.00 0.00 0.00 85 1014.7
20260508085750 11 141 0.0 0.0 0.00 0.00 0.00 86 1014.6
20260508085248 11 56 1.6 1.6 0.00 0.00 0.00 84 1014.8
20260508084743 12 319 3.2 3.2 0.00 0.00 0.00 82 1014.8
20260508084242 12 288 6.4 8.0 0.00 0.00 0.00 81 1014.7
20260508083739 12 282 4.8 4.8 0.00 0.00 0.00 82 1014.4
20260508083237 11 306 3.2 4.8 0.00 0.00 0.00 83 1014.4
20260508082736 11 307 6.4 8.0 0.00 0.00 0.00 84 1014.5
20260508082235 11 341 1.6 3.2 0.00 0.00 0.00 86 1014.6
20260508081731 11 347 3.2 4.8 0.00 0.00 0.00 85 1014.6
20260508081228 11 233 1.6 1.6 0.00 0.00 0.00 87 1014.6
20260508080725 11 277 1.6 1.6 0.00 0.00 0.00 88 1014.7
20260508080223 11 313 1.6 1.6 0.00 0.00 0.00 88 1014.8
20260508075719 11 117 0.0 1.6 0.00 0.00 0.00 89 1014.7
20260508075216 11 195 0.0 0.0 0.00 0.00 0.00 88 1014.6
20260508074714 11 298 3.2 3.2 0.00 0.00 0.00 89 1014.4
20260508074212 11 213 0.0 1.6 0.00 0.00 0.00 89 1014.4
20260508073708 11 209 0.0 0.0 0.00 0.00 0.00 87 1014.6
20260508073207 11 222 1.6 1.6 0.00 0.00 0.00 86 1014.6
20260508072702 12 215 0.0 1.6 0.00 0.00 0.00 86 1014.7
20260508072159 12 311 1.6 1.6 0.00 0.00 0.00 85 1014.6
20260508071656 12 280 6.4 8.0 0.00 0.00 0.00 85 1014.5
20260508071155 12 276 4.8 4.8 0.00 0.00 0.00 85 1014.7
20260508070652 12 275 6.4 9.7 0.00 0.00 0.00 85 1014.9
20260508070150 12 275 4.8 4.8 0.00 0.00 0.00 86 1014.6
20260508065647 12 221 1.6 1.6 0.00 0.00 0.00 86 1014.9
20260508065145 12 245 4.8 4.8 0.00 0.00 0.00 86 1014.6
20260508064642 11 288 4.8 4.8 0.00 0.00 0.00 87 1014.7
20260508064140 11 249 1.6 3.2 0.00 0.00 0.00 88 1014.8
20260508063637 12 254 1.6 3.2 0.00 0.00 0.00 87 1014.6
20260508063135 12 203 0.0 0.0 0.00 0.00 0.00 86 1014.6
20260508062633 11 271 1.6 3.2 0.00 0.00 0.00 88 1014.4
20260508062129 11 227 1.6 1.6 0.00 0.00 0.00 90 1014.7
20260508061626 11 214 1.6 1.6 0.00 0.00 0.00 92 1014.7
20260508061124 11 208 0.0 0.0 0.00 0.00 0.00 91 1014.6
20260508060620 11 208 0.0 0.0 0.00 0.00 0.00 91 1014.6
20260508060118 11 203 0.0 0.0 0.00 0.00 0.00 91 1014.6
20260508055613 11 203 0.0 0.0 0.00 0.00 0.00 91 1014.7
20260508055110 11 200 0.0 1.6 0.00 0.00 0.00 91 1014.6
20260508054607 11 200 0.0 0.0 0.00 0.00 0.00 91 1014.7
20260508054104 11 200 0.0 0.0 0.00 0.00 0.00 91 1014.8
20260508053600 11 200 1.6 1.6 0.00 0.00 0.00 90 1014.6
20260508053059 11 198 0.0 0.0 0.00 0.00 0.00 89 1014.8
20260508052556 11 200 1.6 1.6 0.00 0.00 0.00 89 1014.7
20260508052053 11 196 1.6 1.6 0.00 0.00 0.00 89 1014.9
20260508051549 12 197 1.6 1.6 0.00 0.00 0.00 89 1014.7
20260508051044 12 198 1.6 1.6 0.00 0.00 0.00 88 1014.8
20260508050541 12 199 0.0 0.0 0.00 0.00 0.00 87 1014.5
20260508050038 12 199 0.0 1.6 0.00 0.00 0.00 87 1014.6
20260508045534 12 199 1.6 1.6 0.00 0.00 0.00 86 1014.7
20260508045032 12 198 1.6 1.6 0.00 0.00 0.00 86 1014.5
20260508044529 12 156 0.0 1.6 0.00 0.00 0.00 86 1014.6
20260508044025 12 109 0.0 0.0 0.00 0.00 0.00 85 1014.6
20260508043522 12 126 0.0 1.6 0.00 0.00 0.00 84 1014.5
20260508043019 13 120 0.0 0.0 0.00 0.00 0.00 83 1014.4
20260508042516 13 163 0.0 0.0 0.00 0.00 0.00 82 1014.3
20260508042013 13 226 1.6 1.6 0.00 0.00 0.00 81 1014.3
20260508041510 13 252 3.2 3.2 0.00 0.00 0.00 80 1014.1
20260508041006 13 232 3.2 3.2 0.00 0.00 0.00 80 1014.3
20260508040504 13 215 4.8 4.8 0.00 0.00 0.00 80 1014.3
20260508040001 13 279 4.8 8.0 0.00 2.57 2.57 79 1014.3
20260508035458 13 231 3.2 3.2 0.00 2.57 2.57 80 1014.1
20260508034954 13 269 3.2 3.2 0.00 2.57 2.57 79 1014.4
20260508034452 13 247 3.2 3.2 0.00 2.57 2.57 78 1014.1
20260508033948 14 236 3.2 3.2 0.00 2.57 2.57 78 1014.2
20260508033447 14 244 3.2 4.8 0.00 2.57 2.57 78 1014.0
20260508032944 14 234 1.6 1.6 0.00 2.57 2.57 77 1014.1